This demonstration page uses our WeatherBlox Daily Observations layout. Learn more.

Left ArrowRight Arrow

Hourly Observations for November 7, 2021

Temp ( °F °C ) Dew Point ( °F °C ) Humidity (%) Winds ( mph kmh ) Pressure ( in mb ) Visibility ( mi km ) Precip ( " mm )
12:53 am 00:53 Clear 42 5.6 38 3.3 85 85 Calm 30.14 1021 10 16 0.00 0.00
1:53 am 01:53 Clear 40 4.4 37 2.8 89 89 Calm 30.14 1021 10 16 0.00 0.00
1:53 am 01:53 Clear 40 4.4 36 2.2 86 86 Calm 30.14 1021 10 16 0.00 0.00
2:53 am 02:53 Clear 39 3.9 35 1.7 86 86 NNW 5 7 30.12 1020 10 16 0.00 0.00
3:53 am 03:53 Clear 37 2.8 34 1.1 89 89 N 5 7 30.14 1021 10 16 0.00 0.00
4:53 am 04:53 Clear with Mist and Fog 36 2.2 34 1.1 93 93 Calm 30.14 1021 3 5 0.00 0.00
4:56 am 04:56 Clear with Mist and Fog 36 2.2 34 1.1 93 93 Calm 30.18 1022 2 3 0.00 0.00
5:03 am 05:03 Clear with Mist and Fog 36 2.2 34 1.1 93 93 Calm 30.18 1022 3 5 0.00 0.00
5:53 am 05:53 Clear 38 3.3 35 1.7 89 89 NNW 3 6 30.17 1022 10 16 0.00 0.00
6:53 am 06:53 Clear 37 2.8 33 0.6 86 86 N 5 7 30.18 1022 10 16 0.00 0.00
7:53 am 07:53 Sunny 37 2.8 37 2.8 100 100 Calm 30.19 1022 10 16 0.00 0.00
8:53 am 08:53 Sunny 45 7.2 38 3.3 77 77 Calm 30.22 1023 10 16 0.00 0.00
9:53 am 09:53 Sunny 50 10 38 3.3 63 63 SW 3 6 30.22 1023 10 16 0.00 0.00
10:53 am 10:53 Sunny 55 12.8 38 3.3 53 53 Calm 30.22 1023 10 16 0.00 0.00
11:53 am 11:53 Sunny 60 15.6 37 2.8 42 42 SSW 5 7 30.21 1023 10 16 0.00 0.00
12:53 pm 12:53 Sunny 62 16.7 34 1.1 35 35 WNW 5 7 30.17 1022 10 16 0.00 0.00
1:53 pm 13:53 Sunny 65 18.3 33 0.6 31 31 Calm 30.15 1021 10 16 0.00 0.00
2:53 pm 14:53 Sunny 66 18.9 34 1.1 30 30 W 8 13 30.14 1021 10 16 0.00 0.00
3:53 pm 15:53 Sunny 66 18.9 32 0 28 28 WNW 6 9 30.13 1020 10 16 0.00 0.00
4:53 pm 16:53 Sunny 65 18.3 33 0.6 31 31 NW 8 13 30.14 1021 10 16 0.00 0.00
5:53 pm 17:53 Clear 59 15 34 1.1 39 39 WNW 3 6 30.16 1021 10 16 0.00 0.00
6:53 pm 18:53 Clear 56 13.3 33 0.6 42 42 Calm 30.16 1022 10 16 0.00 0.00
7:53 pm 19:53 Clear 52 11.1 33 0.6 49 49 Calm 30.17 1022 10 16 0.00 0.00
8:53 pm 20:53 Clear 46 7.8 36 2.2 68 68 Calm 30.18 1022 10 16 0.00 0.00
9:53 pm 21:53 Clear 49 9.4 37 2.8 64 64 Calm 30.18 1022 10 16 0.00 0.00
10:53 pm 22:53 Clear 45 7.2 33 0.6 63 63 Calm 30.18 1022 10 16 0.00 0.00
11:53 pm 23:53 Clear 49 9.4 33 0.6 55 55 Calm 30.17 1022 10 16 0.00 0.00

Powered by AerisWeather